Wind_Speed
56 57 58 59 61 61 62 63 64 64 65 66 68 68 68 68 68 68 68 68 68 68 68 68 68 67 67 67 67 67 67 66 66 66 66 65 65 65
59 60 62 63 64 65 65 66 66 67 67 67 68 68 67 67 66 66 65 65 65 65 64 63 62 62 62 61 61 61 61 60 60 60 60 60 60 60
62 63 64 65 66 66 66 66 67 66 66 66 65 65 64 64 63 62 62 61 61 60 60 59 58 58 58 57 57 56 55 55 55 55 55 55 55 56
64 65 66 66 66 66 66 65 65 65 64 62 61 60 60 60 59 58 58 57 57 56 55 54 53 53 52 52 51 50 50 49 49 49 49 49 49 50
65 65 65 65 65 64 63 62 61 60 59 57 55 55 55 55 54 53 53 52 50 48 47 46 46 45 45 43 43 43 43 43 44 44 45 45 45 46
65 65 65 63 62 60 58 56 55 53 52 51 50 49 49 48 47 46 44 43 42 41 40 39 39 38 37 38 38 39 39 40 40 41 41 41 42 42
63 62 61 58 56 53 51 49 47 46 46 45 44 42 41 40 39 38 36 36 36 36 35 35 35 34 34 35 35 36 36 37 38 38 38 39 39 39
58 56 53 50 48 46 44 42 41 39 39 38 37 35 33 33 32 31 31 30 30 31 31 32 32 32 32 32 33 33 34 34 35 35 36 36 36 36
49 46 43 41 39 38 36 35 34 33 31 30 29 28 27 27 27 27 26 26 26 26 26 28 29 30 30 30 30 31 31 32 32 32 32 32 32 32
37 35 34 32 30 29 28 27 26 25 24 23 22 22 22 22 22 22 22 22 23 24 24 25 26 27 28 29 29 29 29 29 29 29 29 29 29 29
28 27 25 23 22 21 20 20 19 19 18 18 17 17 18 18 19 19 19 20 21 23 24 24 25 27 28 28 28 27 27 26 26 25 26 26 26 26
21 19 17 16 15 14 14 14 14 15 15 15 15 15 15 16 16 17 18 20 21 22 23 24 25 25 25 27 26 25 24 23 22 22 21 22 22 22
15 13 12 11 11 11 12 12 12 12 12 13 14 14 15 15 17 18 19 20 21 22 23 23 24 24 24 24 24 23 21 20 19 18 17 17 17 17
11 11 10 10 10 11 11 11 12 12 12 13 14 15 16 17 18 19 19 20 21 22 22 22 22 22 22 21 21 20 19 18 17 15 14 13 13 13
11 10 10 10 11 11 12 12 13 14 15 15 16 17 17 18 19 19 20 20 20 20 21 21 21 21 21 20 19 18 18 17 15 14 13 11 11 10
11 11 11 11 12 13 14 14 15 16 16 17 17 18 19 19 20 20 20 20 19 19 19 20 20 20 20 20 19 19 18 17 15 14 13 12 10 8
11 12 12 13 14 14 15 16 17 17 18 18 19 19 20 20 20 20 20 19 19 19 19 19 19 20 20 20 20 20 19 18 16 15 14 13 11 10
12 12 13 13 14 15 16 17 18 18 19 19 20 20 21 21 21 20 20 20 19 19 19 19 20 20 20 21 21 21 20 19 18 17 15 14 13 12
13 13 13 13 14 15 17 18 18 19 20 20 21 21 22 22 21 21 20 20 19 19 19 19 20 20 20 21 21 22 22 21 20 20 19 18 16 15
13 13 13 14 14 15 17 18 19 20 21 21 21 22 22 21 20 20 20 20 19 19 19 19 20 20 20 21 22 23 23 23 23 22 21 20 20 19
13 13 14 14 15 16 17 18 19 20 20 20 21 22 22 22 21 20 20 20 19 19 18 19 19 20 20 21 21 22 24 24 24 24 23 23 23 22
12 13 14 14 15 16 17 18 19 19 20 20 21 21 21 21 21 20 20 20 19 19 18 18 19 20 21 20 20 21 22 24 24 25 26 25 24 24
12 13 14 14 15 16 17 18 18 19 20 20 21 21 21 21 21 20 20 20 19 19 19 19 19 19 20 20 20 20 21 22 23 24 25 26 26 26
Wind_Direction
290 290 291 290 289 289 288 287 287 286 286 286 286 285 285 284 284 283 283 283 282 282 282 282 282 282 281 280 279 279 278 277 276 275 274 273 271 269
291 290 290 289 289 288 288 288 287 287 286 286 286 285 285 285 285 284 284 284 284 284 283 283 283 282 282 281 280 280 279 278 276 275 274 272 271 269
290 290 290 289 289 289 289 288 288 288 287 287 287 286 286 285 286 286 285 285 284 284 284 284 283 283 283 282 281 280 279 278 277 276 274 272 270 268
290 290 291 290 290 290 289 289 289 289 288 288 288 287 287 287 287 287 287 286 286 286 285 285 284 284 284 283 282 281 280 279 277 276 274 272 270 268
292 291 291 291 291 291 291 290 290 290 290 289 288 288 288 288 288 288 288 288 288 288 288 287 287 287 287 286 285 284 282 281 279 278 276 273 271 269
292 292 292 293 293 292 292 292 291 291 291 291 290 289 289 290 290 291 291 292 292 292 292 291 290 290 290 289 288 286 285 283 282 280 277 275 273 270
294 293 293 292 292 292 293 293 293 293 293 293 293 292 293 293 294 294 294 293 293 294 295 295 295 295 294 293 291 289 288 286 283 281 278 276 274 271
294 293 293 292 292 293 293 293 294 294 295 295 295 295 296 297 297 297 297 296 296 297 298 299 300 299 299 298 296 294 292 289 286 283 280 277 274 271
296 295 294 293 294 294 294 295 296 298 298 298 299 299 299 300 301 301 303 303 302 302 303 303 304 304 303 303 301 299 296 292 289 286 282 279 275 271
300 299 298 298 297 297 297 298 299 300 301 302 302 303 304 305 306 307 308 309 309 310 311 310 310 310 309 308 307 305 301 297 294 289 285 281 278 273
308 307 307 306 305 304 304 305 306 308 308 309 310 311 313 314 314 315 315 315 315 315 317 317 317 316 314 313 312 310 305 301 297 293 288 284 279 275
317 318 318 318 318 319 320 322 323 323 323 324 326 326 326 326 325 324 324 323 322 322 322 322 322 322 320 319 318 316 312 308 304 300 295 289 282 276
330 332 334 337 338 340 342 343 343 342 342 343 343 343 341 338 336 335 332 331 330 329 328 328 328 328 327 326 325 324 322 318 314 310 303 297 290 282
352 356 358 360 1 2 4 5 5 4 3 1 358 354 350 346 343 341 339 337 335 335 335 336 336 336 336 336 335 333 332 330 327 324 317 309 301 293
15 17 19 20 20 21 22 21 20 17 13 8 3 358 355 352 349 347 345 344 343 343 345 347 348 349 349 350 349 348 347 345 342 340 336 329 318 309
34 34 35 35 36 36 33 29 26 21 15 11 7 4 1 359 357 355 354 354 354 355 357 359 359 0 2 4 5 5 4 2 0 358 356 352 348 340
43 44 45 44 42 38 33 27 22 18 15 12 10 8 7 6 4 3 3 3 4 5 7 8 9 11 14 15 15 14 14 14 13 12 12 11 9 5
49 50 48 45 40 36 30 25 22 19 17 15 14 13 12 10 9 9 11 12 13 15 15 16 17 19 22 23 23 23 23 24 25 27 27 27 26 24
50 49 46 42 38 33 29 26 24 22 20 19 18 16 14 13 15 15 16 17 20 22 23 24 25 26 27 28 29 30 31 33 35 37 38 39 40 40
48 46 42 39 35 32 29 26 23 21 21 20 18 17 17 18 19 19 20 21 24 27 29 31 31 33 35 37 37 38 40 40 42 44 46 47 47 47
44 40 36 34 32 29 26 23 21 20 21 20 20 20 21 22 22 23 24 26 29 31 34 36 37 39 41 42 42 44 45 47 49 50 51 51 51 52
39 35 32 30 29 26 24 22 22 22 21 21 22 23 24 24 26 27 28 30 32 35 38 41 42 43 43 43 44 46 48 50 51 51 52 53 54 55
35 32 29 28 27 25 25 25 24 23 23 24 25 25 26 27 29 30 32 33 36 38 41 43 44 44 45 45 47 49 52 53 54 54 54 54 55 54
Height
5758 5754 5750 5746 5742 5738 5734 5730 5727 5723 5719 5712 5707 5702 5698 5694 5690 5687 5683 5678 5674 5670 5667 5663 5659 5656 5652 5649 5646 5643 5640 5638 5636 5634 5633 5632 5632 5632
5742 5738 5734 5729 5725 5720 5716 5712 5708 5704 5700 5695 5689 5683 5678 5674 5671 5667 5663 5659 5655 5651 5648 5644 5640 5637 5633 5630 5626 5624 5621 5618 5616 5614 5613 5612 5611 5611
5726 5721 5716 5711 5706 5702 5697 5693 5689 5684 5681 5676 5670 5665 5660 5656 5652 5648 5644 5640 5637 5633 5629 5626 5622 5619 5615 5612 5608 5605 5602 5600 5597 5596 5594 5593 5592 5593
5709 5704 5698 5693 5688 5683 5678 5673 5669 5665 5661 5657 5652 5647 5642 5638 5635 5631 5627 5623 5619 5615 5612 5608 5605 5601 5598 5595 5591 5588 5585 5583 5580 5578 5577 5576 5575 5575
5692 5686 5680 5675 5670 5665 5660 5655 5650 5646 5642 5639 5635 5630 5626 5622 5619 5615 5611 5607 5603 5600 5597 5593 5589 5586 5583 5579 5576 5573 5570 5568 5566 5563 5562 5560 5560 5559
5674 5668 5662 5657 5652 5647 5643 5638 5634 5630 5626 5623 5619 5615 5611 5607 5605 5602 5598 5594 5590 5587 5584 5580 5577 5574 5570 5567 5564 5560 5557 5554 5552 5549 5547 5546 5545 5545
5655 5650 5645 5640 5636 5631 5628 5624 5621 5617 5613 5609 5606 5602 5599 5596 5593 5590 5587 5584 5579 5576 5573 5569 5566 5563 5559 5555 5552 5549 5545 5542 5539 5536 5534 5533 5532 5531
5638 5633 5629 5625 5621 5618 5615 5612 5609 5606 5602 5598 5595 5592 5589 5586 5584 5581 5578 5575 5572 5569 5565 5561 5556 5553 5549 5545 5541 5538 5534 5530 5527 5524 5522 5520 5519 5518
5623 5619 5615 5612 5609 5607 5604 5602 5599 5596 5594 5591 5588 5585 5582 5579 5577 5574 5571 5567 5564 5561 5558 5554 5549 5544 5540 5536 5532 5528 5524 5520 5516 5513 5511 5509 5507 5507
5611 5608 5605 5602 5600 5598 5596 5594 5591 5589 5587 5585 5582 5580 5577 5574 5571 5569 5565 5562 5558 5555 5551 5548 5542 5537 5532 5528 5524 5519 5514 5510 5506 5503 5501 5499 5497 5496
5604 5601 5598 5596 5594 5592 5590 5588 5586 5584 5582 5580 5578 5575 5572 5570 5567 5564 5561 5558 5554 5549 5545 5541 5536 5531 5525 5520 5516 5511 5506 5502 5498 5495 5492 5489 5488 5487
5599 5596 5594 5592 5590 5588 5587 5585 5583 5581 5579 5577 5574 5572 5569 5567 5564 5561 5557 5553 5549 5545 5540 5535 5530 5525 5520 5514 5509 5504 5499 5495 5491 5487 5484 5482 5480 5479
5597 5595 5593 5591 5589 5587 5585 5583 5581 5579 5577 5575 5572 5570 5567 5564 5561 5557 5553 5549 5545 5540 5536 5531 5526 5520 5515 5510 5504 5499 5494 5489 5485 5482 5478 5476 5474 5472
5596 5594 5593 5591 5589 5587 5585 5583 5581 5579 5576 5574 5571 5569 5566 5562 5558 5555 5550 5546 5541 5537 5532 5527 5522 5516 5511 5506 5501 5495 5490 5486 5482 5478 5475 5472 5470 5468
5597 5595 5594 5592 5590 5588 5586 5584 5582 5579 5577 5574 5571 5568 5564 5561 5557 5552 5548 5543 5539 5534 5529 5524 5519 5514 5509 5503 5498 5493 5488 5484 5480 5476 5473 5470 5467 5465
5599 5597 5596 5594 5592 5590 5588 5586 5583 5581 5578 5575 5571 5568 5564 5560 5555 5551 5546 5542 5537 5532 5528 5523 5518 5513 5508 5502 5497 5492 5488 5483 5479 5475 5472 5469 5466 5464
5602 5600 5598 5596 5594 5593 5590 5588 5585 5582 5579 5575 5572 5567 5563 5559 5554 5550 5545 5541 5536 5532 5527 5523 5518 5513 5508 5503 5498 5493 5488 5484 5480 5476 5473 5469 5467 5464
5605 5603 5601 5599 5597 5595 5593 5590 5587 5584 5580 5576 5572 5568 5563 5559 5555 5550 5545 5541 5537 5532 5528 5523 5519 5514 5510 5505 5501 5496 5491 5487 5482 5478 5475 5472 5469 5466
5608 5606 5604 5602 5600 5598 5595 5592 5589 5586 5582 5578 5573 5569 5564 5560 5555 5551 5546 5542 5538 5534 5530 5525 5521 5517 5513 5509 5504 5499 5495 5490 5486 5482 5478 5475 5472 5468
5611 5609 5607 5605 5603 5600 5597 5594 5591 5587 5583 5579 5575 5570 5566 5561 5557 5552 5548 5544 5540 5536 5532 5528 5524 5520 5516 5512 5508 5504 5500 5495 5491 5488 5484 5480 5477 5473
5614 5612 5610 5607 5605 5602 5600 5597 5593 5589 5585 5581 5577 5572 5568 5563 5559 5554 5550 5546 5542 5539 5535 5532 5528 5524 5520 5517 5513 5509 5506 5501 5498 5494 5490 5486 5483 5480
5616 5614 5612 5610 5607 5605 5602 5598 5595 5591 5587 5583 5579 5574 5570 5566 5561 5557 5553 5549 5546 5542 5539 5535 5532 5528 5525 5522 5518 5515 5511 5508 5504 5501 5497 5494 5491 5487
5619 5616 5614 5612 5609 5607 5604 5600 5597 5593 5590 5585 5581 5577 5573 5568 5564 5560 5556 5552 5549 5546 5543 5539 5536 5533 5530 5527 5523 5520 5517 5514 5511 5508 5505 5501 5498 5494